Location: Island
(46.9861°N, 93.0135°W)
Time: 03:28:05
(UTC+00:00)

N. Korean satellite - Visible Passes

Search period start: 06 December 2019 00:00
Search period end: 16 December 2019 00:00
Orbit: 456 x 506 km, 97.2° (Epoch: 05 December)

Date Brightness Start Highest point End Pass type
(mag) Time Alt. Az. Time Alt. Az. Time Alt. Az.
06 Dec 9.4 00:05:02 10° SW 00:07:56 21° W 00:10:49 10° NW visible
06 Dec 8.9 11:27:59 10° NE 11:31:00 25° E 11:33:57 10° SSE visible
06 Dec 7.6 13:01:24 10° NNW 13:04:19 24° WNW 13:07:11 10° WSW visible
06 Dec 8.2 23:38:51 10° S 23:42:21 40° W 23:45:54 10° NNW visible
07 Dec 9.9 11:03:35 10° ENE 11:05:21 13° E 11:07:05 10° ESE visible
07 Dec 6.8 12:35:35 10° N 12:39:01 45° WNW 12:42:23 10° SW visible
07 Dec 6.7 23:13:10 10° S 23:16:54 83° W 23:20:37 10° NNW visible
08 Dec 6.5 12:10:03 10° NNE 12:13:38 85° ESE 12:17:08 10° SSW visible
09 Dec 10.0 00:23:11 10° WSW 00:25:10 14° W 00:27:08 10° WNW visible
09 Dec 8.0 11:44:46 10° NNE 11:48:09 39° E 11:51:27 10° S visible
09 Dec 9.1 23:56:24 10° SSW 23:59:32 26° W 00:02:40 10° NW visible
10 Dec 9.3 11:19:52 10° NE 11:22:34 20° E 11:25:12 10° SE visible
10 Dec 7.4 12:52:54 10° N 12:56:00 28° WNW 12:59:02 10° SW visible
10 Dec 7.6 23:30:23 10° S 23:34:00 50° W 23:37:37 10° NNW visible
11 Dec 10.1 10:56:16 10° ENE 10:56:53 10° E 10:57:29 10° E visible
11 Dec 6.5 12:27:11 10° N 12:30:40 57° WNW 12:34:05 10° SSW visible
11 Dec 6.6 23:04:50 10° SSE 23:08:33 79° ENE 23:12:15 10° N visible
12 Dec 6.8 12:01:43 10° NNE 12:05:14 66° E 12:08:41 10° S visible
13 Dec 9.8 00:14:16 10° SW 00:16:43 17° W 00:19:10 10° NW visible
13 Dec 8.4 11:36:32 10° NNE 11:39:43 31° E 11:42:50 10° SSE visible
13 Dec 7.9 13:10:23 10° NNW 13:12:55 19° WNW 13:15:25 10° WSW visible
13 Dec 8.7 23:47:47 10° SSW 23:51:07 31° W 23:54:27 10° NNW visible
14 Dec 9.6 11:11:49 10° NE 11:14:05 16° E 11:16:20 10° SE visible
14 Dec 7.1 12:44:24 10° N 12:47:38 35° WNW 12:50:49 10° SW visible
14 Dec 7.1 23:21:57 10° S 23:25:36 64° W 23:29:15 10° NNW visible
15 Dec 6.3 12:18:45 10° N 12:22:16 73° WNW 12:25:42 10° SSW visible
15 Dec 6.6 22:56:32 10° SSE 23:00:10 62° ENE 23:03:48 10° N visible
